This is the latest recevied weather packets stored in our database for station/object N4RCT. If no packets are shown the sender has not sent any weather packets the latest 1 day(s).
| Time | Temp. | Humidity | Pressure | Rain* | Wind** | Luminosity | Snow |
|---|---|---|---|---|---|---|---|
| 1778010508 | 26.67° C | 39% | 1012.6 hPa | 0 mm | 0.89 m/s, 55° | 581 W/m² | - |
| 1778010205 | 25.56° C | 44% | 1012.6 hPa | 0 mm | 0 m/s | 663 W/m² | - |
| 1778009900 | 26.11° C | 42% | 1012.7 hPa | 0 mm | 0 m/s | 675 W/m² | - |
| 1778009599 | 26.11° C | 40% | 1012.8 hPa | 0 mm | 1.34 m/s, 223° | 691 W/m² | - |
| 1778009296 | 26.11° C | 40% | 1012.8 hPa | 0 mm | 0 m/s | 700 W/m² | - |
| 1778008994 | 26.11° C | 39% | 1013 hPa | 0 mm | 1.34 m/s, 284° | 714 W/m² | - |
| 1778008692 | 26.67° C | 41% | 1012.9 hPa | 0 mm | 0 m/s | 716 W/m² | - |
| 1778008390 | 26.11° C | 41% | 1013.3 hPa | 0 mm | 0.45 m/s, 144° | 707 W/m² | - |
| 1778008086 | 26.67° C | 41% | 1013.3 hPa | 0 mm | 1.34 m/s, 224° | 714 W/m² | - |
| 1778007782 | 25.56° C | 40% | 1013.3 hPa | 0 mm | 0 m/s | 788 W/m² | - |
| 1778007478 | 25° C | 45% | 1013.3 hPa | 0 mm | 0.45 m/s, 276° | 755 W/m² | - |
| 1778007174 | 25.56° C | 42% | 1013.3 hPa | 0 mm | 0.45 m/s, 72° | 462 W/m² | - |
| 1778006870 | 25.56° C | 43% | 1013.5 hPa | 0 mm | 1.34 m/s, 169° | 442 W/m² | - |
| 1778006568 | 25.56° C | 42% | 1013.1 hPa | 0 mm | 0.89 m/s, 193° | 672 W/m² | - |
| 1778006264 | 25° C | 40% | 1013.3 hPa | 0 mm | 0.45 m/s, 117° | 504 W/m² | - |
| 1778005962 | 25.56° C | 42% | 1013.1 hPa | 0 mm | 0.45 m/s, 132° | 340 W/m² | - |
| 1778005659 | 25.56° C | 41% | 1013.2 hPa | 0 mm | 0 m/s | 394 W/m² | - |
| 1778005355 | 26.11° C | 42% | 1013.2 hPa | 0 mm | 0.45 m/s, 187° | 736 W/m² | - |
| 1778005052 | 26.11° C | 43% | 1013.3 hPa | 0 mm | 0.45 m/s, 66° | 691 W/m² | - |
| 1778004750 | 26.11° C | 45% | 1013.1 hPa | 0 mm | 0.45 m/s, 158° | 632 W/m² | - |
| 1778004446 | 25.56° C | 45% | 1013.3 hPa | 0 mm | 0.45 m/s, 141° | 825 W/m² | - |
| 1778004142 | 25° C | 45% | 1013.2 hPa | 0 mm | 0 m/s | 707 W/m² | - |
| 1778003839 | 25° C | 45% | 1013.5 hPa | 0 mm | 0.45 m/s, 112° | 568 W/m² | - |
| 1778003535 | 26.11° C | 42% | 1013.5 hPa | 0 mm | 0 m/s | 367 W/m² | - |
| 1778003232 | 25.56° C | 41% | 1013.3 hPa | 0 mm | 0.89 m/s, 66° | 801 W/m² | - |
* Rain latest hour (hover to see other rain measurements)
** Current wind speed in m/s (hover to see current wind gust speed)